Index of /20260419/WXO-DD/model_rdps/10km/12/070
Name Last modified Size Description
Parent Directory -
20260419T12Z_MSC_RDPS_AbsoluteVorticity_IsbL-0250_RLatLon0.09_PT070H.grib2 2026-04-19 15:01 733K
20260419T12Z_MSC_RDPS_AbsoluteVorticity_IsbL-0500_RLatLon0.09_PT070H.grib2 2026-04-19 15:01 571K
20260419T12Z_MSC_RDPS_AbsoluteVorticity_IsbL-0700_RLatLon0.09_PT070H.grib2 2026-04-19 15:01 623K
20260419T12Z_MSC_RDPS_AbsoluteVorticity_IsbL-0850_RLatLon0.09_PT070H.grib2 2026-04-19 15:01 794K
20260419T12Z_MSC_RDPS_AirTemp_AGL-120m_RLatLon0.09_PT070H.grib2 2026-04-19 15:01 382K
20260419T12Z_MSC_RDPS_AirTemp_AGL-2m_RLatLon0.09_PT070H.grib2 2026-04-19 15:01 643K
20260419T12Z_MSC_RDPS_AirTemp_AGL-40m_RLatLon0.09_PT070H.grib2 2026-04-19 15:01 401K
20260419T12Z_MSC_RDPS_AirTemp_AGL-80m_RLatLon0.09_PT070H.grib2 2026-04-19 15:01 391K
20260419T12Z_MSC_RDPS_AirTemp_IsbL-0001_RLatLon0.09_PT070H.grib2 2026-04-19 15:01 293K
20260419T12Z_MSC_RDPS_AirTemp_IsbL-0005_RLatLon0.09_PT070H.grib2 2026-04-19 15:01 334K
20260419T12Z_MSC_RDPS_AirTemp_IsbL-0010_RLatLon0.09_PT070H.grib2 2026-04-19 15:01 308K
20260419T12Z_MSC_RDPS_AirTemp_IsbL-0020_RLatLon0.09_PT070H.grib2 2026-04-19 15:01 330K
20260419T12Z_MSC_RDPS_AirTemp_IsbL-0030_RLatLon0.09_PT070H.grib2 2026-04-19 15:01 355K
20260419T12Z_MSC_RDPS_AirTemp_IsbL-0050_RLatLon0.09_PT070H.grib2 2026-04-19 15:01 338K
20260419T12Z_MSC_RDPS_AirTemp_IsbL-0100_RLatLon0.09_PT070H.grib2 2026-04-19 15:01 442K
20260419T12Z_MSC_RDPS_AirTemp_IsbL-0150_RLatLon0.09_PT070H.grib2 2026-04-19 15:01 433K
20260419T12Z_MSC_RDPS_AirTemp_IsbL-0175_RLatLon0.09_PT070H.grib2 2026-04-19 15:01 428K
20260419T12Z_MSC_RDPS_AirTemp_IsbL-0200_RLatLon0.09_PT070H.grib2 2026-04-19 15:01 430K
20260419T12Z_MSC_RDPS_AirTemp_IsbL-0225_RLatLon0.09_PT070H.grib2 2026-04-19 15:01 427K
20260419T12Z_MSC_RDPS_AirTemp_IsbL-0250_RLatLon0.09_PT070H.grib2 2026-04-19 15:01 429K
20260419T12Z_MSC_RDPS_AirTemp_IsbL-0275_RLatLon0.09_PT070H.grib2 2026-04-19 15:01 407K
20260419T12Z_MSC_RDPS_AirTemp_IsbL-0300_RLatLon0.09_PT070H.grib2 2026-04-19 15:01 414K
20260419T12Z_MSC_RDPS_AirTemp_IsbL-0350_RLatLon0.09_PT070H.grib2 2026-04-19 15:01 430K
20260419T12Z_MSC_RDPS_AirTemp_IsbL-0400_RLatLon0.09_PT070H.grib2 2026-04-19 15:01 432K
20260419T12Z_MSC_RDPS_AirTemp_IsbL-0450_RLatLon0.09_PT070H.grib2 2026-04-19 15:01 406K
20260419T12Z_MSC_RDPS_AirTemp_IsbL-0500_RLatLon0.09_PT070H.grib2 2026-04-19 15:01 420K
20260419T12Z_MSC_RDPS_AirTemp_IsbL-0550_RLatLon0.09_PT070H.grib2 2026-04-19 15:01 440K
20260419T12Z_MSC_RDPS_AirTemp_IsbL-0600_RLatLon0.09_PT070H.grib2 2026-04-19 15:01 458K
20260419T12Z_MSC_RDPS_AirTemp_IsbL-0650_RLatLon0.09_PT070H.grib2 2026-04-19 15:01 471K
20260419T12Z_MSC_RDPS_AirTemp_IsbL-0700_RLatLon0.09_PT070H.grib2 2026-04-19 15:01 494K
20260419T12Z_MSC_RDPS_AirTemp_IsbL-0750_RLatLon0.09_PT070H.grib2 2026-04-19 15:01 536K
20260419T12Z_MSC_RDPS_AirTemp_IsbL-0800_RLatLon0.09_PT070H.grib2 2026-04-19 15:01 594K
20260419T12Z_MSC_RDPS_AirTemp_IsbL-0850_RLatLon0.09_PT070H.grib2 2026-04-19 15:01 511K
20260419T12Z_MSC_RDPS_AirTemp_IsbL-0875_RLatLon0.09_PT070H.grib2 2026-04-19 15:01 521K
20260419T12Z_MSC_RDPS_AirTemp_IsbL-0900_RLatLon0.09_PT070H.grib2 2026-04-19 15:01 524K
20260419T12Z_MSC_RDPS_AirTemp_IsbL-0925_RLatLon0.09_PT070H.grib2 2026-04-19 15:01 518K
20260419T12Z_MSC_RDPS_AirTemp_IsbL-0950_RLatLon0.09_PT070H.grib2 2026-04-19 15:01 525K
20260419T12Z_MSC_RDPS_AirTemp_IsbL-0970_RLatLon0.09_PT070H.grib2 2026-04-19 15:01 529K
20260419T12Z_MSC_RDPS_AirTemp_IsbL-0985_RLatLon0.09_PT070H.grib2 2026-04-19 15:01 523K
20260419T12Z_MSC_RDPS_AirTemp_IsbL-1000_RLatLon0.09_PT070H.grib2 2026-04-19 15:01 506K
20260419T12Z_MSC_RDPS_AirTemp_IsbL-1015_RLatLon0.09_PT070H.grib2 2026-04-19 15:01 501K
20260419T12Z_MSC_RDPS_Albedo_Sfc_RLatLon0.09_PT070H.grib2 2026-04-19 15:01 166K
20260419T12Z_MSC_RDPS_CAPE_Sfc_RLatLon0.09_PT070H.grib2 2026-04-19 15:01 1.5M
20260419T12Z_MSC_RDPS_CIN_Sfc_RLatLon0.09_PT070H.grib2 2026-04-19 15:01 1.1M
20260419T12Z_MSC_RDPS_CloudWater_EAtm_RLatLon0.09_PT070H.grib2 2026-04-19 15:01 218K
20260419T12Z_MSC_RDPS_ConvectivePrecip-Accum_Sfc_RLatLon0.09_PT070H.grib2 2026-04-19 15:01 1.3M
20260419T12Z_MSC_RDPS_DewPointDepression_AGL-2m_RLatLon0.09_PT070H.grib2 2026-04-19 15:01 391K
20260419T12Z_MSC_RDPS_DewPointDepression_IsbL-0001_RLatLon0.09_PT070H.grib2 2026-04-19 15:01 193
20260419T12Z_MSC_RDPS_DewPointDepression_IsbL-0005_RLatLon0.09_PT070H.grib2 2026-04-19 15:01 193
20260419T12Z_MSC_RDPS_DewPointDepression_IsbL-0010_RLatLon0.09_PT070H.grib2 2026-04-19 15:01 193
20260419T12Z_MSC_RDPS_DewPointDepression_IsbL-0020_RLatLon0.09_PT070H.grib2 2026-04-19 15:01 193
20260419T12Z_MSC_RDPS_DewPointDepression_IsbL-0030_RLatLon0.09_PT070H.grib2 2026-04-19 15:01 193
20260419T12Z_MSC_RDPS_DewPointDepression_IsbL-0050_RLatLon0.09_PT070H.grib2 2026-04-19 15:01 107K
20260419T12Z_MSC_RDPS_DewPointDepression_IsbL-0100_RLatLon0.09_PT070H.grib2 2026-04-19 15:01 129K
20260419T12Z_MSC_RDPS_DewPointDepression_IsbL-0150_RLatLon0.09_PT070H.grib2 2026-04-19 15:01 152K
20260419T12Z_MSC_RDPS_DewPointDepression_IsbL-0175_RLatLon0.09_PT070H.grib2 2026-04-19 15:01 190K
20260419T12Z_MSC_RDPS_DewPointDepression_IsbL-0200_RLatLon0.09_PT070H.grib2 2026-04-19 15:01 230K
20260419T12Z_MSC_RDPS_DewPointDepression_IsbL-0225_RLatLon0.09_PT070H.grib2 2026-04-19 15:01 261K
20260419T12Z_MSC_RDPS_DewPointDepression_IsbL-0250_RLatLon0.09_PT070H.grib2 2026-04-19 15:01 297K
20260419T12Z_MSC_RDPS_DewPointDepression_IsbL-0275_RLatLon0.09_PT070H.grib2 2026-04-19 15:01 307K
20260419T12Z_MSC_RDPS_DewPointDepression_IsbL-0300_RLatLon0.09_PT070H.grib2 2026-04-19 15:01 330K
20260419T12Z_MSC_RDPS_DewPointDepression_IsbL-0350_RLatLon0.09_PT070H.grib2 2026-04-19 15:01 338K
20260419T12Z_MSC_RDPS_DewPointDepression_IsbL-0400_RLatLon0.09_PT070H.grib2 2026-04-19 15:01 348K
20260419T12Z_MSC_RDPS_DewPointDepression_IsbL-0450_RLatLon0.09_PT070H.grib2 2026-04-19 15:01 355K
20260419T12Z_MSC_RDPS_DewPointDepression_IsbL-0500_RLatLon0.09_PT070H.grib2 2026-04-19 15:01 363K
20260419T12Z_MSC_RDPS_DewPointDepression_IsbL-0550_RLatLon0.09_PT070H.grib2 2026-04-19 15:01 378K
20260419T12Z_MSC_RDPS_DewPointDepression_IsbL-0600_RLatLon0.09_PT070H.grib2 2026-04-19 15:01 392K
20260419T12Z_MSC_RDPS_DewPointDepression_IsbL-0650_RLatLon0.09_PT070H.grib2 2026-04-19 15:01 394K
20260419T12Z_MSC_RDPS_DewPointDepression_IsbL-0700_RLatLon0.09_PT070H.grib2 2026-04-19 15:01 397K
20260419T12Z_MSC_RDPS_DewPointDepression_IsbL-0750_RLatLon0.09_PT070H.grib2 2026-04-19 15:01 416K
20260419T12Z_MSC_RDPS_DewPointDepression_IsbL-0800_RLatLon0.09_PT070H.grib2 2026-04-19 15:01 452K
20260419T12Z_MSC_RDPS_DewPointDepression_IsbL-0850_RLatLon0.09_PT070H.grib2 2026-04-19 15:01 467K
20260419T12Z_MSC_RDPS_DewPointDepression_IsbL-0875_RLatLon0.09_PT070H.grib2 2026-04-19 15:01 458K
20260419T12Z_MSC_RDPS_DewPointDepression_IsbL-0900_RLatLon0.09_PT070H.grib2 2026-04-19 15:01 450K
20260419T12Z_MSC_RDPS_DewPointDepression_IsbL-0925_RLatLon0.09_PT070H.grib2 2026-04-19 15:01 442K
20260419T12Z_MSC_RDPS_DewPointDepression_IsbL-0950_RLatLon0.09_PT070H.grib2 2026-04-19 15:01 441K
20260419T12Z_MSC_RDPS_DewPointDepression_IsbL-0970_RLatLon0.09_PT070H.grib2 2026-04-19 15:01 436K
20260419T12Z_MSC_RDPS_DewPointDepression_IsbL-0985_RLatLon0.09_PT070H.grib2 2026-04-19 15:01 434K
20260419T12Z_MSC_RDPS_DewPointDepression_IsbL-1000_RLatLon0.09_PT070H.grib2 2026-04-19 15:01 429K
20260419T12Z_MSC_RDPS_DewPointDepression_IsbL-1015_RLatLon0.09_PT070H.grib2 2026-04-19 15:01 422K
20260419T12Z_MSC_RDPS_DewPoint_AGL-2m_RLatLon0.09_PT070H.grib2 2026-04-19 15:01 403K
20260419T12Z_MSC_RDPS_DownwardLongwaveRadiationFlux-Accum_Sfc_RLatLon0.09_PT070H.grib2 2026-04-19 15:01 416K
20260419T12Z_MSC_RDPS_DownwardShortwaveRadiationFlux-Accum_NTAtm_RLatLon0.09_PT070H.grib2 2026-04-19 15:01 111K
20260419T12Z_MSC_RDPS_DownwardShortwaveRadiationFlux-Accum_Sfc_RLatLon0.09_PT070H.grib2 2026-04-19 15:01 603K
20260419T12Z_MSC_RDPS_FreezingRain-Accum1h_Sfc_RLatLon0.09_PT070H.grib2 2026-04-19 15:01 29K
20260419T12Z_MSC_RDPS_FreezingRain-Accum_Sfc_RLatLon0.09_PT070H.grib2 2026-04-19 15:01 156K
20260419T12Z_MSC_RDPS_GeopotentialHeight_IsbL-0001_RLatLon0.09_PT070H.grib2 2026-04-19 15:01 274K
20260419T12Z_MSC_RDPS_GeopotentialHeight_IsbL-0005_RLatLon0.09_PT070H.grib2 2026-04-19 15:01 314K
20260419T12Z_MSC_RDPS_GeopotentialHeight_IsbL-0010_RLatLon0.09_PT070H.grib2 2026-04-19 15:01 347K
20260419T12Z_MSC_RDPS_GeopotentialHeight_IsbL-0020_RLatLon0.09_PT070H.grib2 2026-04-19 15:01 316K
20260419T12Z_MSC_RDPS_GeopotentialHeight_IsbL-0030_RLatLon0.09_PT070H.grib2 2026-04-19 15:01 318K
20260419T12Z_MSC_RDPS_GeopotentialHeight_IsbL-0050_RLatLon0.09_PT070H.grib2 2026-04-19 15:01 353K
20260419T12Z_MSC_RDPS_GeopotentialHeight_IsbL-0100_RLatLon0.09_PT070H.grib2 2026-04-19 15:01 298K
20260419T12Z_MSC_RDPS_GeopotentialHeight_IsbL-0150_RLatLon0.09_PT070H.grib2 2026-04-19 15:01 236K
20260419T12Z_MSC_RDPS_GeopotentialHeight_IsbL-0175_RLatLon0.09_PT070H.grib2 2026-04-19 15:01 270K
20260419T12Z_MSC_RDPS_GeopotentialHeight_IsbL-0200_RLatLon0.09_PT070H.grib2 2026-04-19 15:01 272K
20260419T12Z_MSC_RDPS_GeopotentialHeight_IsbL-0225_RLatLon0.09_PT070H.grib2 2026-04-19 15:01 274K
20260419T12Z_MSC_RDPS_GeopotentialHeight_IsbL-0250_RLatLon0.09_PT070H.grib2 2026-04-19 15:01 274K
20260419T12Z_MSC_RDPS_GeopotentialHeight_IsbL-0275_RLatLon0.09_PT070H.grib2 2026-04-19 15:01 273K
20260419T12Z_MSC_RDPS_GeopotentialHeight_IsbL-0300_RLatLon0.09_PT070H.grib2 2026-04-19 15:01 272K
20260419T12Z_MSC_RDPS_GeopotentialHeight_IsbL-0350_RLatLon0.09_PT070H.grib2 2026-04-19 15:01 239K
20260419T12Z_MSC_RDPS_GeopotentialHeight_IsbL-0400_RLatLon0.09_PT070H.grib2 2026-04-19 15:01 235K
20260419T12Z_MSC_RDPS_GeopotentialHeight_IsbL-0450_RLatLon0.09_PT070H.grib2 2026-04-19 15:01 307K
20260419T12Z_MSC_RDPS_GeopotentialHeight_IsbL-0500_RLatLon0.09_PT070H.grib2 2026-04-19 15:01 302K
20260419T12Z_MSC_RDPS_GeopotentialHeight_IsbL-0550_RLatLon0.09_PT070H.grib2 2026-04-19 15:01 298K
20260419T12Z_MSC_RDPS_GeopotentialHeight_IsbL-0600_RLatLon0.09_PT070H.grib2 2026-04-19 15:01 293K
20260419T12Z_MSC_RDPS_GeopotentialHeight_IsbL-0650_RLatLon0.09_PT070H.grib2 2026-04-19 15:01 290K
20260419T12Z_MSC_RDPS_GeopotentialHeight_IsbL-0700_RLatLon0.09_PT070H.grib2 2026-04-19 15:01 260K
20260419T12Z_MSC_RDPS_GeopotentialHeight_IsbL-0750_RLatLon0.09_PT070H.grib2 2026-04-19 15:01 262K
20260419T12Z_MSC_RDPS_GeopotentialHeight_IsbL-0800_RLatLon0.09_PT070H.grib2 2026-04-19 15:01 268K
20260419T12Z_MSC_RDPS_GeopotentialHeight_IsbL-0850_RLatLon0.09_PT070H.grib2 2026-04-19 15:01 273K
20260419T12Z_MSC_RDPS_GeopotentialHeight_IsbL-0875_RLatLon0.09_PT070H.grib2 2026-04-19 15:01 273K
20260419T12Z_MSC_RDPS_GeopotentialHeight_IsbL-0900_RLatLon0.09_PT070H.grib2 2026-04-19 15:01 277K
20260419T12Z_MSC_RDPS_GeopotentialHeight_IsbL-0925_RLatLon0.09_PT070H.grib2 2026-04-19 15:01 279K
20260419T12Z_MSC_RDPS_GeopotentialHeight_IsbL-0950_RLatLon0.09_PT070H.grib2 2026-04-19 15:01 283K
20260419T12Z_MSC_RDPS_GeopotentialHeight_IsbL-0970_RLatLon0.09_PT070H.grib2 2026-04-19 15:01 288K
20260419T12Z_MSC_RDPS_GeopotentialHeight_IsbL-0985_RLatLon0.09_PT070H.grib2 2026-04-19 15:01 295K
20260419T12Z_MSC_RDPS_GeopotentialHeight_IsbL-1000_RLatLon0.09_PT070H.grib2 2026-04-19 15:01 305K
20260419T12Z_MSC_RDPS_GeopotentialHeight_IsbL-1015_RLatLon0.09_PT070H.grib2 2026-04-19 15:01 317K
20260419T12Z_MSC_RDPS_Humidex_Sfc_RLatLon0.09_PT070H.grib2 2026-04-19 15:01 2.4M
20260419T12Z_MSC_RDPS_IcePellets-Accum1h_Sfc_RLatLon0.09_PT070H.grib2 2026-04-19 15:01 10K
20260419T12Z_MSC_RDPS_IcePellets-Accum_Sfc_RLatLon0.09_PT070H.grib2 2026-04-19 15:01 33K
20260419T12Z_MSC_RDPS_KIndex_Sfc_RLatLon0.09_PT070H.grib2 2026-04-19 15:01 2.5M
20260419T12Z_MSC_RDPS_LatentHeatNetFlux_Sfc_RLatLon0.09_PT070H.grib2 2026-04-19 15:01 414K
20260419T12Z_MSC_RDPS_LiftedIndex-MU-VT_IsbL-0500_RLatLon0.09_PT070H.grib2 2026-04-19 15:01 2.4M
20260419T12Z_MSC_RDPS_NetLongwaveRadiationFlux-Accum_Sfc_RLatLon0.09_PT070H.grib2 2026-04-19 15:01 599K
20260419T12Z_MSC_RDPS_NetShortwaveRadiationFlux-Accum_Sfc_RLatLon0.09_PT070H.grib2 2026-04-19 15:01 619K
20260419T12Z_MSC_RDPS_PlanetaryBoundaryLayerHeight_Sfc_RLatLon0.09_PT070H.grib2 2026-04-19 15:01 1.1M
20260419T12Z_MSC_RDPS_Precip-Accum1h_Sfc_RLatLon0.09_PT070H.grib2 2026-04-19 15:01 1.3M
20260419T12Z_MSC_RDPS_Precip-Accum_Sfc_RLatLon0.09_PT070H.grib2 2026-04-19 15:01 2.0M
20260419T12Z_MSC_RDPS_PrecipRate_Sfc_RLatLon0.09_PT070H.grib2 2026-04-19 15:01 196K
20260419T12Z_MSC_RDPS_PrecipType-Instant_Sfc_RLatLon0.09_PT070H.grib2 2026-04-19 15:01 632K
20260419T12Z_MSC_RDPS_Pressure-Trend3h_Sfc_RLatLon0.09_PT070H.grib2 2026-04-19 15:01 1.2M
20260419T12Z_MSC_RDPS_Pressure_MSL_RLatLon0.09_PT070H.grib2 2026-04-19 15:01 329K
20260419T12Z_MSC_RDPS_Pressure_PVU-1.5_RLatLon0.09_PT070H.grib2 2026-04-19 15:01 2.3M
20260419T12Z_MSC_RDPS_Pressure_PVU-1_RLatLon0.09_PT070H.grib2 2026-04-19 15:01 2.4M
20260419T12Z_MSC_RDPS_Pressure_PVU-2_RLatLon0.09_PT070H.grib2 2026-04-19 15:01 2.4M
20260419T12Z_MSC_RDPS_Pressure_Sfc_RLatLon0.09_PT070H.grib2 2026-04-19 15:01 503K
20260419T12Z_MSC_RDPS_RadiativeTemp_Sfc_RLatLon0.09_PT070H.grib2 2026-04-19 15:01 312K
20260419T12Z_MSC_RDPS_Rain-Accum1h_Sfc_RLatLon0.09_PT070H.grib2 2026-04-19 15:01 657K
20260419T12Z_MSC_RDPS_Rain-Accum_Sfc_RLatLon0.09_PT070H.grib2 2026-04-19 15:01 1.7M
20260419T12Z_MSC_RDPS_RelativeHumidity_AGL-2m_RLatLon0.09_PT070H.grib2 2026-04-19 15:01 1.0M
20260419T12Z_MSC_RDPS_RelativeHumidity_IsbL-0010_RLatLon0.09_PT070H.grib2 2026-04-19 15:01 623K
20260419T12Z_MSC_RDPS_RelativeHumidity_IsbL-0020_RLatLon0.09_PT070H.grib2 2026-04-19 15:01 572K
20260419T12Z_MSC_RDPS_RelativeHumidity_IsbL-0030_RLatLon0.09_PT070H.grib2 2026-04-19 15:01 550K
20260419T12Z_MSC_RDPS_RelativeHumidity_IsbL-0050_RLatLon0.09_PT070H.grib2 2026-04-19 15:01 294K
20260419T12Z_MSC_RDPS_RelativeHumidity_IsbL-0100_RLatLon0.09_PT070H.grib2 2026-04-19 15:01 381K
20260419T12Z_MSC_RDPS_RelativeHumidity_IsbL-0150_RLatLon0.09_PT070H.grib2 2026-04-19 15:01 379K
20260419T12Z_MSC_RDPS_RelativeHumidity_IsbL-0175_RLatLon0.09_PT070H.grib2 2026-04-19 15:01 471K
20260419T12Z_MSC_RDPS_RelativeHumidity_IsbL-0200_RLatLon0.09_PT070H.grib2 2026-04-19 15:01 562K
20260419T12Z_MSC_RDPS_RelativeHumidity_IsbL-0225_RLatLon0.09_PT070H.grib2 2026-04-19 15:01 635K
20260419T12Z_MSC_RDPS_RelativeHumidity_IsbL-0250_RLatLon0.09_PT070H.grib2 2026-04-19 15:01 701K
20260419T12Z_MSC_RDPS_RelativeHumidity_IsbL-0275_RLatLon0.09_PT070H.grib2 2026-04-19 15:01 717K
20260419T12Z_MSC_RDPS_RelativeHumidity_IsbL-0300_RLatLon0.09_PT070H.grib2 2026-04-19 15:01 754K
20260419T12Z_MSC_RDPS_RelativeHumidity_IsbL-0350_RLatLon0.09_PT070H.grib2 2026-04-19 15:01 775K
20260419T12Z_MSC_RDPS_RelativeHumidity_IsbL-0400_RLatLon0.09_PT070H.grib2 2026-04-19 15:01 790K
20260419T12Z_MSC_RDPS_RelativeHumidity_IsbL-0450_RLatLon0.09_PT070H.grib2 2026-04-19 15:01 798K
20260419T12Z_MSC_RDPS_RelativeHumidity_IsbL-0500_RLatLon0.09_PT070H.grib2 2026-04-19 15:01 807K
20260419T12Z_MSC_RDPS_RelativeHumidity_IsbL-0550_RLatLon0.09_PT070H.grib2 2026-04-19 15:01 832K
20260419T12Z_MSC_RDPS_RelativeHumidity_IsbL-0600_RLatLon0.09_PT070H.grib2 2026-04-19 15:01 858K
20260419T12Z_MSC_RDPS_RelativeHumidity_IsbL-0650_RLatLon0.09_PT070H.grib2 2026-04-19 15:01 865K
20260419T12Z_MSC_RDPS_RelativeHumidity_IsbL-0700_RLatLon0.09_PT070H.grib2 2026-04-19 15:01 876K
20260419T12Z_MSC_RDPS_RelativeHumidity_IsbL-0750_RLatLon0.09_PT070H.grib2 2026-04-19 15:01 914K
20260419T12Z_MSC_RDPS_RelativeHumidity_IsbL-0800_RLatLon0.09_PT070H.grib2 2026-04-19 15:01 1.0M
20260419T12Z_MSC_RDPS_RelativeHumidity_IsbL-0850_RLatLon0.09_PT070H.grib2 2026-04-19 15:01 1.0M
20260419T12Z_MSC_RDPS_RelativeHumidity_IsbL-0875_RLatLon0.09_PT070H.grib2 2026-04-19 15:01 1.0M
20260419T12Z_MSC_RDPS_RelativeHumidity_IsbL-0900_RLatLon0.09_PT070H.grib2 2026-04-19 15:01 1.0M
20260419T12Z_MSC_RDPS_RelativeHumidity_IsbL-0925_RLatLon0.09_PT070H.grib2 2026-04-19 15:01 1.1M
20260419T12Z_MSC_RDPS_RelativeHumidity_IsbL-0950_RLatLon0.09_PT070H.grib2 2026-04-19 15:01 1.1M
20260419T12Z_MSC_RDPS_RelativeHumidity_IsbL-0970_RLatLon0.09_PT070H.grib2 2026-04-19 15:01 1.1M
20260419T12Z_MSC_RDPS_RelativeHumidity_IsbL-0985_RLatLon0.09_PT070H.grib2 2026-04-19 15:01 1.0M
20260419T12Z_MSC_RDPS_RelativeHumidity_IsbL-1000_RLatLon0.09_PT070H.grib2 2026-04-19 15:01 1.0M
20260419T12Z_MSC_RDPS_RelativeHumidity_IsbL-1015_RLatLon0.09_PT070H.grib2 2026-04-19 15:01 1.0M
20260419T12Z_MSC_RDPS_Runoff-Accum_Sfc_RLatLon0.09_PT070H.grib2 2026-04-19 15:01 67K
20260419T12Z_MSC_RDPS_SWEATIndex_Sfc_RLatLon0.09_PT070H.grib2 2026-04-19 15:01 2.4M
20260419T12Z_MSC_RDPS_SeeingIndex_EAtm_RLatLon0.09_PT070H.grib2 2026-04-19 15:01 1.0M
20260419T12Z_MSC_RDPS_SensibleHeatNetFlux_Sfc_RLatLon0.09_PT070H.grib2 2026-04-19 15:01 305K
20260419T12Z_MSC_RDPS_ShowalterIndex_IsbL-0500_RLatLon0.09_PT070H.grib2 2026-04-19 15:01 2.6M
20260419T12Z_MSC_RDPS_SkyTransparencyIndex_EAtm_RLatLon0.09_PT070H.grib2 2026-04-19 15:01 721K
20260419T12Z_MSC_RDPS_Snow-Accum1h_Sfc_RLatLon0.09_PT070H.grib2 2026-04-19 15:01 459K
20260419T12Z_MSC_RDPS_Snow-Accum_Sfc_RLatLon0.09_PT070H.grib2 2026-04-19 15:01 727K
20260419T12Z_MSC_RDPS_SnowDensity_Sfc_RLatLon0.09_PT070H.grib2 2026-04-19 15:01 174K
20260419T12Z_MSC_RDPS_SnowDepth_Sfc_RLatLon0.09_PT070H.grib2 2026-04-19 15:01 718K
20260419T12Z_MSC_RDPS_SoilTemp_DBS-0to10cm_RLatLon0.09_PT070H.grib2 2026-04-19 15:01 240K
20260419T12Z_MSC_RDPS_SoilTemp_Sfc_RLatLon0.09_PT070H.grib2 2026-04-19 15:01 275K
20260419T12Z_MSC_RDPS_SoilVolumetricIceContent_Sfc_RLatLon0.09_PT070H.grib2 2026-04-19 15:01 170K
20260419T12Z_MSC_RDPS_SoilVolumetricWaterContent_DBS-0to10cm_RLatLon0.09_PT070H.grib2 2026-04-19 15:01 251K
20260419T12Z_MSC_RDPS_SoilVolumetricWaterContent_DBS-0to1cm_RLatLon0.09_PT070H.grib2 2026-04-19 15:01 340K
20260419T12Z_MSC_RDPS_SpecificHumidity_AGL-120m_RLatLon0.09_PT070H.grib2 2026-04-19 15:01 482K
20260419T12Z_MSC_RDPS_SpecificHumidity_AGL-2m_RLatLon0.09_PT070H.grib2 2026-04-19 15:01 651K
20260419T12Z_MSC_RDPS_SpecificHumidity_AGL-40m_RLatLon0.09_PT070H.grib2 2026-04-19 15:01 489K
20260419T12Z_MSC_RDPS_SpecificHumidity_AGL-80m_RLatLon0.09_PT070H.grib2 2026-04-19 15:01 484K
20260419T12Z_MSC_RDPS_SpecificHumidity_IsbL-0001_RLatLon0.09_PT070H.grib2 2026-04-19 15:01 322K
20260419T12Z_MSC_RDPS_SpecificHumidity_IsbL-0005_RLatLon0.09_PT070H.grib2 2026-04-19 15:01 400K
20260419T12Z_MSC_RDPS_SpecificHumidity_IsbL-0010_RLatLon0.09_PT070H.grib2 2026-04-19 15:01 374K
20260419T12Z_MSC_RDPS_SpecificHumidity_IsbL-0020_RLatLon0.09_PT070H.grib2 2026-04-19 15:01 365K
20260419T12Z_MSC_RDPS_SpecificHumidity_IsbL-0030_RLatLon0.09_PT070H.grib2 2026-04-19 15:01 438K
20260419T12Z_MSC_RDPS_SpecificHumidity_IsbL-0050_RLatLon0.09_PT070H.grib2 2026-04-19 15:01 465K
20260419T12Z_MSC_RDPS_SpecificHumidity_IsbL-0100_RLatLon0.09_PT070H.grib2 2026-04-19 15:01 412K
20260419T12Z_MSC_RDPS_SpecificHumidity_IsbL-0150_RLatLon0.09_PT070H.grib2 2026-04-19 15:01 544K
20260419T12Z_MSC_RDPS_SpecificHumidity_IsbL-0175_RLatLon0.09_PT070H.grib2 2026-04-19 15:01 526K
20260419T12Z_MSC_RDPS_SpecificHumidity_IsbL-0200_RLatLon0.09_PT070H.grib2 2026-04-19 15:01 551K
20260419T12Z_MSC_RDPS_SpecificHumidity_IsbL-0225_RLatLon0.09_PT070H.grib2 2026-04-19 15:01 556K
20260419T12Z_MSC_RDPS_SpecificHumidity_IsbL-0250_RLatLon0.09_PT070H.grib2 2026-04-19 15:01 559K
20260419T12Z_MSC_RDPS_SpecificHumidity_IsbL-0275_RLatLon0.09_PT070H.grib2 2026-04-19 15:01 474K
20260419T12Z_MSC_RDPS_SpecificHumidity_IsbL-0300_RLatLon0.09_PT070H.grib2 2026-04-19 15:01 544K
20260419T12Z_MSC_RDPS_SpecificHumidity_IsbL-0350_RLatLon0.09_PT070H.grib2 2026-04-19 15:01 537K
20260419T12Z_MSC_RDPS_SpecificHumidity_IsbL-0400_RLatLon0.09_PT070H.grib2 2026-04-19 15:01 519K
20260419T12Z_MSC_RDPS_SpecificHumidity_IsbL-0450_RLatLon0.09_PT070H.grib2 2026-04-19 15:01 574K
20260419T12Z_MSC_RDPS_SpecificHumidity_IsbL-0500_RLatLon0.09_PT070H.grib2 2026-04-19 15:01 511K
20260419T12Z_MSC_RDPS_SpecificHumidity_IsbL-0550_RLatLon0.09_PT070H.grib2 2026-04-19 15:01 572K
20260419T12Z_MSC_RDPS_SpecificHumidity_IsbL-0600_RLatLon0.09_PT070H.grib2 2026-04-19 15:01 646K
20260419T12Z_MSC_RDPS_SpecificHumidity_IsbL-0650_RLatLon0.09_PT070H.grib2 2026-04-19 15:01 681K
20260419T12Z_MSC_RDPS_SpecificHumidity_IsbL-0700_RLatLon0.09_PT070H.grib2 2026-04-19 15:01 590K
20260419T12Z_MSC_RDPS_SpecificHumidity_IsbL-0750_RLatLon0.09_PT070H.grib2 2026-04-19 15:01 640K
20260419T12Z_MSC_RDPS_SpecificHumidity_IsbL-0800_RLatLon0.09_PT070H.grib2 2026-04-19 15:01 717K
20260419T12Z_MSC_RDPS_SpecificHumidity_IsbL-0850_RLatLon0.09_PT070H.grib2 2026-04-19 15:01 789K
20260419T12Z_MSC_RDPS_SpecificHumidity_IsbL-0875_RLatLon0.09_PT070H.grib2 2026-04-19 15:01 804K
20260419T12Z_MSC_RDPS_SpecificHumidity_IsbL-0900_RLatLon0.09_PT070H.grib2 2026-04-19 15:01 814K
20260419T12Z_MSC_RDPS_SpecificHumidity_IsbL-0925_RLatLon0.09_PT070H.grib2 2026-04-19 15:01 816K
20260419T12Z_MSC_RDPS_SpecificHumidity_IsbL-0950_RLatLon0.09_PT070H.grib2 2026-04-19 15:01 822K
20260419T12Z_MSC_RDPS_SpecificHumidity_IsbL-0970_RLatLon0.09_PT070H.grib2 2026-04-19 15:01 819K
20260419T12Z_MSC_RDPS_SpecificHumidity_IsbL-0985_RLatLon0.09_PT070H.grib2 2026-04-19 15:01 814K
20260419T12Z_MSC_RDPS_SpecificHumidity_IsbL-1000_RLatLon0.09_PT070H.grib2 2026-04-19 15:01 668K
20260419T12Z_MSC_RDPS_SpecificHumidity_IsbL-1015_RLatLon0.09_PT070H.grib2 2026-04-19 15:01 659K
20260419T12Z_MSC_RDPS_SpecificHumidity_Sfc_RLatLon0.09_PT070H.grib2 2026-04-19 15:01 289K
20260419T12Z_MSC_RDPS_StormRelativeHelicity_EtaL-10000_RLatLon0.09_PT070H.grib2 2026-04-19 15:01 1.1M
20260419T12Z_MSC_RDPS_StormSeverityIndex_EtaL-10000_RLatLon0.09_PT070H.grib2 2026-04-19 15:01 1.2M
20260419T12Z_MSC_RDPS_Thickness_IsbL-0850to0700_RLatLon0.09_PT070H.grib2 2026-04-19 15:01 253K
20260419T12Z_MSC_RDPS_Thickness_IsbL-1000to0500_RLatLon0.09_PT070H.grib2 2026-04-19 15:01 203K
20260419T12Z_MSC_RDPS_Thickness_IsbL-1000to0850_RLatLon0.09_PT070H.grib2 2026-04-19 15:01 263K
20260419T12Z_MSC_RDPS_TotalCloudCover_Sfc_RLatLon0.09_PT070H.grib2 2026-04-19 15:01 672K
20260419T12Z_MSC_RDPS_TotalTotalsIndex_Sfc_RLatLon0.09_PT070H.grib2 2026-04-19 15:01 2.5M
20260419T12Z_MSC_RDPS_UVIndex-ClearSky_Sfc_RLatLon0.09_PT070H.grib2 2026-04-19 15:01 124K
20260419T12Z_MSC_RDPS_UVIndex_Sfc_RLatLon0.09_PT070H.grib2 2026-04-19 15:01 227K
20260419T12Z_MSC_RDPS_UpwardLongwaveRadiationFlux_NTAtm_RLatLon0.09_PT070H.grib2 2026-04-19 15:01 489K
20260419T12Z_MSC_RDPS_UpwardShortwaveRadiationFlux_NTAtm_RLatLon0.09_PT070H.grib2 2026-04-19 15:01 178K
20260419T12Z_MSC_RDPS_VerticalVelocity_IsbL-0250_RLatLon0.09_PT070H.grib2 2026-04-19 15:01 453K
20260419T12Z_MSC_RDPS_VerticalVelocity_IsbL-0500_RLatLon0.09_PT070H.grib2 2026-04-19 15:01 567K
20260419T12Z_MSC_RDPS_VerticalVelocity_IsbL-0700_RLatLon0.09_PT070H.grib2 2026-04-19 15:01 615K
20260419T12Z_MSC_RDPS_VerticalVelocity_IsbL-0850_RLatLon0.09_PT070H.grib2 2026-04-19 15:01 707K
20260419T12Z_MSC_RDPS_VerticalWindShear_EtaL-6500_RLatLon0.09_PT070H.grib2 2026-04-19 15:01 1.2M
20260419T12Z_MSC_RDPS_WindChill_Sfc_RLatLon0.09_PT070H.grib2 2026-04-19 15:01 1.3M
20260419T12Z_MSC_RDPS_WindDir_AGL-10m_RLatLon0.09_PT070H.grib2 2026-04-19 15:01 1.0M
20260419T12Z_MSC_RDPS_WindDir_AGL-120m_RLatLon0.09_PT070H.grib2 2026-04-19 15:01 612K
20260419T12Z_MSC_RDPS_WindDir_AGL-40m_RLatLon0.09_PT070H.grib2 2026-04-19 15:01 649K
20260419T12Z_MSC_RDPS_WindDir_AGL-80m_RLatLon0.09_PT070H.grib2 2026-04-19 15:01 625K
20260419T12Z_MSC_RDPS_WindDir_IsbL-0001_RLatLon0.09_PT070H.grib2 2026-04-19 15:01 294K
20260419T12Z_MSC_RDPS_WindDir_IsbL-0005_RLatLon0.09_PT070H.grib2 2026-04-19 15:01 378K
20260419T12Z_MSC_RDPS_WindDir_IsbL-0010_RLatLon0.09_PT070H.grib2 2026-04-19 15:01 376K
20260419T12Z_MSC_RDPS_WindDir_IsbL-0020_RLatLon0.09_PT070H.grib2 2026-04-19 15:01 414K
20260419T12Z_MSC_RDPS_WindDir_IsbL-0030_RLatLon0.09_PT070H.grib2 2026-04-19 15:01 426K
20260419T12Z_MSC_RDPS_WindDir_IsbL-0050_RLatLon0.09_PT070H.grib2 2026-04-19 15:01 423K
20260419T12Z_MSC_RDPS_WindDir_IsbL-0100_RLatLon0.09_PT070H.grib2 2026-04-19 15:01 427K
20260419T12Z_MSC_RDPS_WindDir_IsbL-0150_RLatLon0.09_PT070H.grib2 2026-04-19 15:01 419K
20260419T12Z_MSC_RDPS_WindDir_IsbL-0175_RLatLon0.09_PT070H.grib2 2026-04-19 15:01 440K
20260419T12Z_MSC_RDPS_WindDir_IsbL-0200_RLatLon0.09_PT070H.grib2 2026-04-19 15:01 451K
20260419T12Z_MSC_RDPS_WindDir_IsbL-0225_RLatLon0.09_PT070H.grib2 2026-04-19 15:01 453K
20260419T12Z_MSC_RDPS_WindDir_IsbL-0250_RLatLon0.09_PT070H.grib2 2026-04-19 15:01 455K
20260419T12Z_MSC_RDPS_WindDir_IsbL-0275_RLatLon0.09_PT070H.grib2 2026-04-19 15:01 471K
20260419T12Z_MSC_RDPS_WindDir_IsbL-0300_RLatLon0.09_PT070H.grib2 2026-04-19 15:01 461K
20260419T12Z_MSC_RDPS_WindDir_IsbL-0350_RLatLon0.09_PT070H.grib2 2026-04-19 15:01 482K
20260419T12Z_MSC_RDPS_WindDir_IsbL-0400_RLatLon0.09_PT070H.grib2 2026-04-19 15:01 506K
20260419T12Z_MSC_RDPS_WindDir_IsbL-0450_RLatLon0.09_PT070H.grib2 2026-04-19 15:01 523K
20260419T12Z_MSC_RDPS_WindDir_IsbL-0500_RLatLon0.09_PT070H.grib2 2026-04-19 15:01 543K
20260419T12Z_MSC_RDPS_WindDir_IsbL-0550_RLatLon0.09_PT070H.grib2 2026-04-19 15:01 566K
20260419T12Z_MSC_RDPS_WindDir_IsbL-0600_RLatLon0.09_PT070H.grib2 2026-04-19 15:01 600K
20260419T12Z_MSC_RDPS_WindDir_IsbL-0650_RLatLon0.09_PT070H.grib2 2026-04-19 15:01 639K
20260419T12Z_MSC_RDPS_WindDir_IsbL-0700_RLatLon0.09_PT070H.grib2 2026-04-19 15:01 681K
20260419T12Z_MSC_RDPS_WindDir_IsbL-0750_RLatLon0.09_PT070H.grib2 2026-04-19 15:01 731K
20260419T12Z_MSC_RDPS_WindDir_IsbL-0800_RLatLon0.09_PT070H.grib2 2026-04-19 15:01 801K
20260419T12Z_MSC_RDPS_WindDir_IsbL-0850_RLatLon0.09_PT070H.grib2 2026-04-19 15:01 864K
20260419T12Z_MSC_RDPS_WindDir_IsbL-0875_RLatLon0.09_PT070H.grib2 2026-04-19 15:01 885K
20260419T12Z_MSC_RDPS_WindDir_IsbL-0900_RLatLon0.09_PT070H.grib2 2026-04-19 15:01 902K
20260419T12Z_MSC_RDPS_WindDir_IsbL-0925_RLatLon0.09_PT070H.grib2 2026-04-19 15:01 917K
20260419T12Z_MSC_RDPS_WindDir_IsbL-0950_RLatLon0.09_PT070H.grib2 2026-04-19 15:01 918K
20260419T12Z_MSC_RDPS_WindDir_IsbL-0970_RLatLon0.09_PT070H.grib2 2026-04-19 15:01 925K
20260419T12Z_MSC_RDPS_WindDir_IsbL-0985_RLatLon0.09_PT070H.grib2 2026-04-19 15:01 939K
20260419T12Z_MSC_RDPS_WindDir_IsbL-1000_RLatLon0.09_PT070H.grib2 2026-04-19 15:01 959K
20260419T12Z_MSC_RDPS_WindDir_IsbL-1015_RLatLon0.09_PT070H.grib2 2026-04-19 15:01 1.0M
20260419T12Z_MSC_RDPS_WindGust-Max_AGL-10m_RLatLon0.09_PT070H.grib2 2026-04-19 15:01 1.0M
20260419T12Z_MSC_RDPS_WindGust-Min_AGL-10m_RLatLon0.09_PT070H.grib2 2026-04-19 15:01 1.0M
20260419T12Z_MSC_RDPS_WindGust_AGL-10m_RLatLon0.09_PT070H.grib2 2026-04-19 15:01 1.0M
20260419T12Z_MSC_RDPS_WindSpeed_AGL-10m_RLatLon0.09_PT070H.grib2 2026-04-19 15:01 856K
20260419T12Z_MSC_RDPS_WindSpeed_AGL-120m_RLatLon0.09_PT070H.grib2 2026-04-19 15:01 553K
20260419T12Z_MSC_RDPS_WindSpeed_AGL-40m_RLatLon0.09_PT070H.grib2 2026-04-19 15:01 556K
20260419T12Z_MSC_RDPS_WindSpeed_AGL-80m_RLatLon0.09_PT070H.grib2 2026-04-19 15:01 555K
20260419T12Z_MSC_RDPS_WindSpeed_IsbL-0001_RLatLon0.09_PT070H.grib2 2026-04-19 15:01 243K
20260419T12Z_MSC_RDPS_WindSpeed_IsbL-0005_RLatLon0.09_PT070H.grib2 2026-04-19 15:01 301K
20260419T12Z_MSC_RDPS_WindSpeed_IsbL-0010_RLatLon0.09_PT070H.grib2 2026-04-19 15:01 315K
20260419T12Z_MSC_RDPS_WindSpeed_IsbL-0020_RLatLon0.09_PT070H.grib2 2026-04-19 15:01 336K
20260419T12Z_MSC_RDPS_WindSpeed_IsbL-0030_RLatLon0.09_PT070H.grib2 2026-04-19 15:01 337K
20260419T12Z_MSC_RDPS_WindSpeed_IsbL-0050_RLatLon0.09_PT070H.grib2 2026-04-19 15:01 487K
20260419T12Z_MSC_RDPS_WindSpeed_IsbL-0100_RLatLon0.09_PT070H.grib2 2026-04-19 15:01 502K
20260419T12Z_MSC_RDPS_WindSpeed_IsbL-0150_RLatLon0.09_PT070H.grib2 2026-04-19 15:01 386K
20260419T12Z_MSC_RDPS_WindSpeed_IsbL-0175_RLatLon0.09_PT070H.grib2 2026-04-19 15:01 411K
20260419T12Z_MSC_RDPS_WindSpeed_IsbL-0200_RLatLon0.09_PT070H.grib2 2026-04-19 15:01 428K
20260419T12Z_MSC_RDPS_WindSpeed_IsbL-0225_RLatLon0.09_PT070H.grib2 2026-04-19 15:01 435K
20260419T12Z_MSC_RDPS_WindSpeed_IsbL-0250_RLatLon0.09_PT070H.grib2 2026-04-19 15:01 455K
20260419T12Z_MSC_RDPS_WindSpeed_IsbL-0275_RLatLon0.09_PT070H.grib2 2026-04-19 15:01 469K
20260419T12Z_MSC_RDPS_WindSpeed_IsbL-0300_RLatLon0.09_PT070H.grib2 2026-04-19 15:01 464K
20260419T12Z_MSC_RDPS_WindSpeed_IsbL-0350_RLatLon0.09_PT070H.grib2 2026-04-19 15:01 474K
20260419T12Z_MSC_RDPS_WindSpeed_IsbL-0400_RLatLon0.09_PT070H.grib2 2026-04-19 15:01 480K
20260419T12Z_MSC_RDPS_WindSpeed_IsbL-0450_RLatLon0.09_PT070H.grib2 2026-04-19 15:01 482K
20260419T12Z_MSC_RDPS_WindSpeed_IsbL-0500_RLatLon0.09_PT070H.grib2 2026-04-19 15:01 467K
20260419T12Z_MSC_RDPS_WindSpeed_IsbL-0550_RLatLon0.09_PT070H.grib2 2026-04-19 15:01 474K
20260419T12Z_MSC_RDPS_WindSpeed_IsbL-0600_RLatLon0.09_PT070H.grib2 2026-04-19 15:01 605K
20260419T12Z_MSC_RDPS_WindSpeed_IsbL-0650_RLatLon0.09_PT070H.grib2 2026-04-19 15:01 622K
20260419T12Z_MSC_RDPS_WindSpeed_IsbL-0700_RLatLon0.09_PT070H.grib2 2026-04-19 15:01 684K
20260419T12Z_MSC_RDPS_WindSpeed_IsbL-0750_RLatLon0.09_PT070H.grib2 2026-04-19 15:01 716K
20260419T12Z_MSC_RDPS_WindSpeed_IsbL-0800_RLatLon0.09_PT070H.grib2 2026-04-19 15:01 769K
20260419T12Z_MSC_RDPS_WindSpeed_IsbL-0850_RLatLon0.09_PT070H.grib2 2026-04-19 15:01 826K
20260419T12Z_MSC_RDPS_WindSpeed_IsbL-0875_RLatLon0.09_PT070H.grib2 2026-04-19 15:01 846K
20260419T12Z_MSC_RDPS_WindSpeed_IsbL-0900_RLatLon0.09_PT070H.grib2 2026-04-19 15:01 860K
20260419T12Z_MSC_RDPS_WindSpeed_IsbL-0925_RLatLon0.09_PT070H.grib2 2026-04-19 15:01 872K
20260419T12Z_MSC_RDPS_WindSpeed_IsbL-0950_RLatLon0.09_PT070H.grib2 2026-04-19 15:01 871K
20260419T12Z_MSC_RDPS_WindSpeed_IsbL-0970_RLatLon0.09_PT070H.grib2 2026-04-19 15:01 871K
20260419T12Z_MSC_RDPS_WindSpeed_IsbL-0985_RLatLon0.09_PT070H.grib2 2026-04-19 15:01 867K
20260419T12Z_MSC_RDPS_WindSpeed_IsbL-1000_RLatLon0.09_PT070H.grib2 2026-04-19 15:01 864K
20260419T12Z_MSC_RDPS_WindSpeed_IsbL-1015_RLatLon0.09_PT070H.grib2 2026-04-19 15:01 857K
20260419T12Z_MSC_RDPS_WindU_AGL-10m_RLatLon0.09_PT070H.grib2 2026-04-19 15:01 440K
20260419T12Z_MSC_RDPS_WindU_AGL-120m_RLatLon0.09_PT070H.grib2 2026-04-19 15:01 549K
20260419T12Z_MSC_RDPS_WindU_AGL-40m_RLatLon0.09_PT070H.grib2 2026-04-19 15:01 551K
20260419T12Z_MSC_RDPS_WindU_AGL-80m_RLatLon0.09_PT070H.grib2 2026-04-19 15:01 550K
20260419T12Z_MSC_RDPS_WindU_IsbL-0001_RLatLon0.09_PT070H.grib2 2026-04-19 15:01 237K
20260419T12Z_MSC_RDPS_WindU_IsbL-0005_RLatLon0.09_PT070H.grib2 2026-04-19 15:01 291K
20260419T12Z_MSC_RDPS_WindU_IsbL-0010_RLatLon0.09_PT070H.grib2 2026-04-19 15:01 349K
20260419T12Z_MSC_RDPS_WindU_IsbL-0020_RLatLon0.09_PT070H.grib2 2026-04-19 15:01 364K
20260419T12Z_MSC_RDPS_WindU_IsbL-0030_RLatLon0.09_PT070H.grib2 2026-04-19 15:01 366K
20260419T12Z_MSC_RDPS_WindU_IsbL-0050_RLatLon0.09_PT070H.grib2 2026-04-19 15:01 405K
20260419T12Z_MSC_RDPS_WindU_IsbL-0100_RLatLon0.09_PT070H.grib2 2026-04-19 15:01 455K
20260419T12Z_MSC_RDPS_WindU_IsbL-0150_RLatLon0.09_PT070H.grib2 2026-04-19 15:01 381K
20260419T12Z_MSC_RDPS_WindU_IsbL-0175_RLatLon0.09_PT070H.grib2 2026-04-19 15:01 425K
20260419T12Z_MSC_RDPS_WindU_IsbL-0200_RLatLon0.09_PT070H.grib2 2026-04-19 15:01 442K
20260419T12Z_MSC_RDPS_WindU_IsbL-0225_RLatLon0.09_PT070H.grib2 2026-04-19 15:01 446K
20260419T12Z_MSC_RDPS_WindU_IsbL-0250_RLatLon0.09_PT070H.grib2 2026-04-19 15:01 446K
20260419T12Z_MSC_RDPS_WindU_IsbL-0275_RLatLon0.09_PT070H.grib2 2026-04-19 15:01 358K
20260419T12Z_MSC_RDPS_WindU_IsbL-0300_RLatLon0.09_PT070H.grib2 2026-04-19 15:01 353K
20260419T12Z_MSC_RDPS_WindU_IsbL-0350_RLatLon0.09_PT070H.grib2 2026-04-19 15:01 360K
20260419T12Z_MSC_RDPS_WindU_IsbL-0400_RLatLon0.09_PT070H.grib2 2026-04-19 15:01 364K
20260419T12Z_MSC_RDPS_WindU_IsbL-0450_RLatLon0.09_PT070H.grib2 2026-04-19 15:01 471K
20260419T12Z_MSC_RDPS_WindU_IsbL-0500_RLatLon0.09_PT070H.grib2 2026-04-19 15:01 473K
20260419T12Z_MSC_RDPS_WindU_IsbL-0550_RLatLon0.09_PT070H.grib2 2026-04-19 15:01 479K
20260419T12Z_MSC_RDPS_WindU_IsbL-0600_RLatLon0.09_PT070H.grib2 2026-04-19 15:01 489K
20260419T12Z_MSC_RDPS_WindU_IsbL-0650_RLatLon0.09_PT070H.grib2 2026-04-19 15:01 504K
20260419T12Z_MSC_RDPS_WindU_IsbL-0700_RLatLon0.09_PT070H.grib2 2026-04-19 15:01 521K
20260419T12Z_MSC_RDPS_WindU_IsbL-0750_RLatLon0.09_PT070H.grib2 2026-04-19 15:01 548K
20260419T12Z_MSC_RDPS_WindU_IsbL-0800_RLatLon0.09_PT070H.grib2 2026-04-19 15:01 583K
20260419T12Z_MSC_RDPS_WindU_IsbL-0850_RLatLon0.09_PT070H.grib2 2026-04-19 15:01 632K
20260419T12Z_MSC_RDPS_WindU_IsbL-0875_RLatLon0.09_PT070H.grib2 2026-04-19 15:01 649K
20260419T12Z_MSC_RDPS_WindU_IsbL-0900_RLatLon0.09_PT070H.grib2 2026-04-19 15:01 661K
20260419T12Z_MSC_RDPS_WindU_IsbL-0925_RLatLon0.09_PT070H.grib2 2026-04-19 15:01 670K
20260419T12Z_MSC_RDPS_WindU_IsbL-0950_RLatLon0.09_PT070H.grib2 2026-04-19 15:01 668K
20260419T12Z_MSC_RDPS_WindU_IsbL-0970_RLatLon0.09_PT070H.grib2 2026-04-19 15:01 666K
20260419T12Z_MSC_RDPS_WindU_IsbL-0985_RLatLon0.09_PT070H.grib2 2026-04-19 15:01 804K
20260419T12Z_MSC_RDPS_WindU_IsbL-1000_RLatLon0.09_PT070H.grib2 2026-04-19 15:01 801K
20260419T12Z_MSC_RDPS_WindU_IsbL-1015_RLatLon0.09_PT070H.grib2 2026-04-19 15:01 795K
20260419T12Z_MSC_RDPS_WindV_AGL-10m_RLatLon0.09_PT070H.grib2 2026-04-19 15:01 440K
20260419T12Z_MSC_RDPS_WindV_AGL-120m_RLatLon0.09_PT070H.grib2 2026-04-19 15:01 428K
20260419T12Z_MSC_RDPS_WindV_AGL-40m_RLatLon0.09_PT070H.grib2 2026-04-19 15:01 550K
20260419T12Z_MSC_RDPS_WindV_AGL-80m_RLatLon0.09_PT070H.grib2 2026-04-19 15:01 430K
20260419T12Z_MSC_RDPS_WindV_IsbL-0001_RLatLon0.09_PT070H.grib2 2026-04-19 15:01 287K
20260419T12Z_MSC_RDPS_WindV_IsbL-0005_RLatLon0.09_PT070H.grib2 2026-04-19 15:01 288K
20260419T12Z_MSC_RDPS_WindV_IsbL-0010_RLatLon0.09_PT070H.grib2 2026-04-19 15:01 306K
20260419T12Z_MSC_RDPS_WindV_IsbL-0020_RLatLon0.09_PT070H.grib2 2026-04-19 15:01 366K
20260419T12Z_MSC_RDPS_WindV_IsbL-0030_RLatLon0.09_PT070H.grib2 2026-04-19 15:01 367K
20260419T12Z_MSC_RDPS_WindV_IsbL-0050_RLatLon0.09_PT070H.grib2 2026-04-19 15:01 369K
20260419T12Z_MSC_RDPS_WindV_IsbL-0100_RLatLon0.09_PT070H.grib2 2026-04-19 15:01 349K
20260419T12Z_MSC_RDPS_WindV_IsbL-0150_RLatLon0.09_PT070H.grib2 2026-04-19 15:01 399K
20260419T12Z_MSC_RDPS_WindV_IsbL-0175_RLatLon0.09_PT070H.grib2 2026-04-19 15:01 422K
20260419T12Z_MSC_RDPS_WindV_IsbL-0200_RLatLon0.09_PT070H.grib2 2026-04-19 15:01 438K
20260419T12Z_MSC_RDPS_WindV_IsbL-0225_RLatLon0.09_PT070H.grib2 2026-04-19 15:01 343K
20260419T12Z_MSC_RDPS_WindV_IsbL-0250_RLatLon0.09_PT070H.grib2 2026-04-19 15:01 344K
20260419T12Z_MSC_RDPS_WindV_IsbL-0275_RLatLon0.09_PT070H.grib2 2026-04-19 15:01 379K
20260419T12Z_MSC_RDPS_WindV_IsbL-0300_RLatLon0.09_PT070H.grib2 2026-04-19 15:01 375K
20260419T12Z_MSC_RDPS_WindV_IsbL-0350_RLatLon0.09_PT070H.grib2 2026-04-19 15:01 358K
20260419T12Z_MSC_RDPS_WindV_IsbL-0400_RLatLon0.09_PT070H.grib2 2026-04-19 15:01 364K
20260419T12Z_MSC_RDPS_WindV_IsbL-0450_RLatLon0.09_PT070H.grib2 2026-04-19 15:01 469K
20260419T12Z_MSC_RDPS_WindV_IsbL-0500_RLatLon0.09_PT070H.grib2 2026-04-19 15:01 472K
20260419T12Z_MSC_RDPS_WindV_IsbL-0550_RLatLon0.09_PT070H.grib2 2026-04-19 15:01 477K
20260419T12Z_MSC_RDPS_WindV_IsbL-0600_RLatLon0.09_PT070H.grib2 2026-04-19 15:01 486K
20260419T12Z_MSC_RDPS_WindV_IsbL-0650_RLatLon0.09_PT070H.grib2 2026-04-19 15:01 501K
20260419T12Z_MSC_RDPS_WindV_IsbL-0700_RLatLon0.09_PT070H.grib2 2026-04-19 15:01 503K
20260419T12Z_MSC_RDPS_WindV_IsbL-0750_RLatLon0.09_PT070H.grib2 2026-04-19 15:01 531K
20260419T12Z_MSC_RDPS_WindV_IsbL-0800_RLatLon0.09_PT070H.grib2 2026-04-19 15:01 579K
20260419T12Z_MSC_RDPS_WindV_IsbL-0850_RLatLon0.09_PT070H.grib2 2026-04-19 15:01 630K
20260419T12Z_MSC_RDPS_WindV_IsbL-0875_RLatLon0.09_PT070H.grib2 2026-04-19 15:01 646K
20260419T12Z_MSC_RDPS_WindV_IsbL-0900_RLatLon0.09_PT070H.grib2 2026-04-19 15:01 656K
20260419T12Z_MSC_RDPS_WindV_IsbL-0925_RLatLon0.09_PT070H.grib2 2026-04-19 15:01 666K
20260419T12Z_MSC_RDPS_WindV_IsbL-0950_RLatLon0.09_PT070H.grib2 2026-04-19 15:01 664K
20260419T12Z_MSC_RDPS_WindV_IsbL-0970_RLatLon0.09_PT070H.grib2 2026-04-19 15:01 664K
20260419T12Z_MSC_RDPS_WindV_IsbL-0985_RLatLon0.09_PT070H.grib2 2026-04-19 15:01 661K
20260419T12Z_MSC_RDPS_WindV_IsbL-1000_RLatLon0.09_PT070H.grib2 2026-04-19 15:01 798K
20260419T12Z_MSC_RDPS_WindV_IsbL-1015_RLatLon0.09_PT070H.grib2 2026-04-19 15:01 794K